| time (UTC) | temp F | wind direction | speed MPH | gust MPH | rain 1hr in | rain 24hr in | rain mn in | humidity % | barometer mb |
| 20260509002617 | 67 | 268 | 1.0 | 2.0 | 0.00 | 0.00 | 0.00 | 45 | 1006.1 |
| 20260509002114 | 67 | 278 | 1.0 | 2.0 | 0.00 | 0.00 | 0.00 | 45 | 1006.2 |
| 20260509001612 | 68 | 217 | 3.0 | 3.0 | 0.00 | 0.00 | 0.00 | 44 | 1006.4 |
| 20260509001107 | 68 | 255 | 1.0 | 5.0 | 0.00 | 0.00 | 0.00 | 45 | 1006.3 |
| 20260509000606 | 68 | 272 | 1.0 | 5.0 | 0.00 | 0.00 | 0.00 | 44 | 1006.1 |
| 20260508235600 | 67 | 263 | 1.0 | 3.0 | 0.00 | 0.00 | 0.00 | 44 | 1006.2 |
| 20260508235056 | 67 | 272 | 0.0 | 2.0 | 0.00 | 0.00 | 0.00 | 46 | 1006.1 |
| 20260508234553 | 68 | 203 | 3.0 | 3.0 | 0.00 | 0.00 | 0.00 | 45 | 1006.2 |
| 20260508234050 | 68 | 247 | 2.0 | 3.0 | 0.00 | 0.00 | 0.00 | 45 | 1006.2 |
| 20260508233549 | 68 | 252 | 2.0 | 2.0 | 0.00 | 0.00 | 0.00 | 45 | 1006.2 |
| 20260508233046 | 68 | 269 | 1.0 | 5.0 | 0.00 | 0.00 | 0.00 | 45 | 1006.3 |
| 20260508232543 | 68 | 274 | 1.0 | 3.0 | 0.00 | 0.00 | 0.00 | 44 | 1006.3 |
| 20260508232040 | 68 | 217 | 3.0 | 3.0 | 0.00 | 0.00 | 0.00 | 45 | 1006.5 |
| 20260508231538 | 68 | 270 | 1.0 | 2.0 | 0.00 | 0.00 | 0.00 | 43 | 1006.2 |
| 20260508231035 | 68 | 263 | 1.0 | 3.0 | 0.00 | 0.00 | 0.00 | 44 | 1006.2 |
| 20260508230531 | 68 | 262 | 2.0 | 3.0 | 0.00 | 0.00 | 0.00 | 43 | 1006.1 |
| 20260508230028 | 68 | 220 | 2.0 | 5.0 | 0.00 | 0.00 | 0.00 | 45 | 1006.0 |
| 20260508225525 | 68 | 252 | 2.0 | 5.0 | 0.00 | 0.00 | 0.00 | 44 | 1006.1 |
| 20260508225022 | 68 | 200 | 5.0 | 6.0 | 0.00 | 0.00 | 0.00 | 45 | 1006.0 |
| 20260508224520 | 69 | 281 | 2.0 | 5.0 | 0.00 | 0.00 | 0.00 | 43 | 1006.3 |
| 20260508224017 | 69 | 217 | 3.0 | 3.0 | 0.00 | 0.00 | 0.00 | 43 | 1006.1 |
| 20260508223515 | 69 | 262 | 2.0 | 5.0 | 0.00 | 0.00 | 0.00 | 42 | 1006.1 |
| 20260508223012 | 69 | 241 | 2.0 | 3.0 | 0.00 | 0.00 | 0.00 | 42 | 1006.0 |
| 20260508222509 | 69 | 205 | 4.0 | 8.0 | 0.00 | 0.00 | 0.00 | 43 | 1006.1 |
| 20260508222005 | 69 | 200 | 5.0 | 9.0 | 0.00 | 0.00 | 0.00 | 43 | 1006.1 |
| 20260508221502 | 69 | 265 | 2.0 | 3.0 | 0.00 | 0.00 | 0.00 | 42 | 1006.0 |
| 20260508220958 | 69 | 231 | 2.0 | 3.0 | 0.00 | 0.00 | 0.00 | 44 | 1005.9 |
| 20260508220454 | 69 | 188 | 2.0 | 5.0 | 0.00 | 0.00 | 0.00 | 43 | 1005.8 |
| 20260508215950 | 69 | 277 | 1.0 | 5.0 | 0.00 | 0.00 | 0.00 | 43 | 1005.9 |
| 20260508215448 | 70 | 256 | 2.0 | 5.0 | 0.00 | 0.00 | 0.00 | 41 | 1005.9 |
| 20260508214944 | 69 | 264 | 5.0 | 7.0 | 0.00 | 0.00 | 0.00 | 41 | 1005.9 |
| 20260508214442 | 69 | 226 | 5.0 | 8.0 | 0.00 | 0.00 | 0.00 | 43 | 1006.0 |
| 20260508213938 | 69 | 212 | 2.0 | 6.0 | 0.00 | 0.00 | 0.00 | 41 | 1006.0 |
| 20260508213436 | 69 | 227 | 3.0 | 6.0 | 0.00 | 0.00 | 0.00 | 40 | 1006.0 |
| 20260508212931 | 70 | 209 | 3.0 | 5.0 | 0.00 | 0.00 | 0.00 | 41 | 1006.1 |
| 20260508212428 | 69 | 256 | 1.0 | 2.0 | 0.00 | 0.00 | 0.00 | 41 | 1006.2 |
| 20260508211924 | 69 | 240 | 3.0 | 3.0 | 0.00 | 0.00 | 0.00 | 43 | 1006.1 |
| 20260508211420 | 69 | 251 | 2.0 | 3.0 | 0.00 | 0.00 | 0.00 | 41 | 1006.3 |
| 20260508210917 | 69 | 215 | 2.0 | 7.0 | 0.00 | 0.00 | 0.00 | 42 | 1006.2 |
| 20260508210414 | 70 | 268 | 2.0 | 8.0 | 0.00 | 0.00 | 0.00 | 40 | 1006.4 |
| 20260508205910 | 70 | 287 | 2.0 | 5.0 | 0.00 | 0.00 | 0.00 | 40 | 1006.8 |
| 20260508205407 | 70 | 204 | 4.0 | 5.0 | 0.00 | 0.00 | 0.00 | 39 | 1006.7 |
| 20260508204903 | 70 | 256 | 5.0 | 7.0 | 0.00 | 0.00 | 0.00 | 37 | 1006.9 |
| 20260508204400 | 70 | 282 | 4.0 | 8.0 | 0.00 | 0.00 | 0.00 | 37 | 1007.0 |
| 20260508203856 | 70 | 281 | 5.0 | 8.0 | 0.00 | 0.00 | 0.00 | 37 | 1007.1 |
| 20260508203352 | 71 | 266 | 2.0 | 3.0 | 0.00 | 0.00 | 0.00 | 39 | 1006.9 |
| 20260508202848 | 70 | 283 | 1.0 | 9.0 | 0.00 | 0.00 | 0.00 | 38 | 1007.0 |
| 20260508202346 | 70 | 283 | 1.0 | 6.0 | 0.00 | 0.00 | 0.00 | 37 | 1007.2 |
| 20260508201843 | 70 | 262 | 6.0 | 6.0 | 0.00 | 0.00 | 0.00 | 37 | 1007.1 |
| 20260508201340 | 70 | 289 | 2.0 | 3.0 | 0.00 | 0.00 | 0.00 | 38 | 1007.3 |
| 20260508200836 | 69 | 261 | 1.0 | 5.0 | 0.00 | 0.00 | 0.00 | 39 | 1007.2 |
| 20260508200333 | 70 | 272 | 1.0 | 7.0 | 0.00 | 0.00 | 0.00 | 38 | 1007.2 |
| 20260508195828 | 69 | 190 | 2.0 | 5.0 | 0.00 | 0.00 | 0.00 | 39 | 1007.2 |
| 20260508195326 | 69 | 247 | 2.0 | 5.0 | 0.00 | 0.00 | 0.00 | 40 | 1007.2 |
| 20260508194822 | 70 | 207 | 2.0 | 5.0 | 0.00 | 0.00 | 0.00 | 38 | 1007.4 |
| 20260508194319 | 70 | 231 | 4.0 | 7.0 | 0.00 | 0.00 | 0.00 | 36 | 1007.5 |
| 20260508193810 | 70 | 260 | 4.0 | 8.0 | 0.00 | 0.00 | 0.00 | 37 | 1007.4 |
| 20260508193307 | 70 | 246 | 4.0 | 6.0 | 0.00 | 0.00 | 0.00 | 39 | 1007.3 |
| 20260508192803 | 70 | 255 | 3.0 | 7.0 | 0.00 | 0.00 | 0.00 | 36 | 1007.5 |
| 20260508192300 | 71 | 222 | 3.0 | 8.0 | 0.00 | 0.00 | 0.00 | 38 | 1007.6 |
| 20260508191757 | 72 | 248 | 2.0 | 8.0 | 0.00 | 0.00 | 0.00 | 36 | 1007.6 |
| 20260508191254 | 72 | 243 | 3.0 | 8.0 | 0.00 | 0.00 | 0.00 | 34 | 1007.8 |
| 20260508190752 | 72 | 289 | 6.0 | 10.0 | 0.00 | 0.00 | 0.00 | 36 | 1007.9 |
| 20260508190248 | 71 | 262 | 2.0 | 3.0 | 0.00 | 0.00 | 0.00 | 39 | 1007.6 |
| 20260508185744 | 71 | 328 | 3.0 | 9.0 | 0.00 | 0.00 | 0.00 | 37 | 1008.1 |
| 20260508185242 | 70 | 248 | 3.0 | 7.0 | 0.00 | 0.00 | 0.00 | 39 | 1007.7 |
| 20260508184739 | 71 | 197 | 4.0 | 9.0 | 0.00 | 0.00 | 0.00 | 40 | 1008.2 |
| 20260508184236 | 70 | 267 | 4.0 | 8.0 | 0.00 | 0.00 | 0.00 | 37 | 1008.4 |
| 20260508183733 | 71 | 288 | 1.0 | 7.0 | 0.00 | 0.00 | 0.00 | 38 | 1008.4 |
| 20260508183229 | 71 | 266 | 6.0 | 9.0 | 0.00 | 0.00 | 0.00 | 35 | 1008.6 |
| 20260508182724 | 71 | 281 | 2.0 | 3.0 | 0.00 | 0.00 | 0.00 | 38 | 1008.6 |
| 20260508182222 | 70 | 264 | 2.0 | 6.0 | 0.00 | 0.00 | 0.00 | 35 | 1008.9 |
| 20260508181718 | 69 | 289 | 2.0 | 8.0 | 0.00 | 0.00 | 0.00 | 36 | 1008.9 |
| 20260508181215 | 70 | 250 | 4.0 | 10.0 | 0.00 | 0.00 | 0.00 | 35 | 1009.1 |
| 20260508180712 | 71 | 283 | 5.0 | 9.0 | 0.00 | 0.00 | 0.00 | 36 | 1009.0 |
| 20260508180208 | 70 | 244 | 5.0 | 8.0 | 0.00 | 0.00 | 0.00 | 38 | 1009.0 |
| 20260508175705 | 70 | 224 | 3.0 | 6.0 | 0.00 | 0.00 | 0.00 | 37 | 1009.2 |
| 20260508175202 | 69 | 227 | 5.0 | 8.0 | 0.00 | 0.00 | 0.00 | 41 | 1009.1 |
| 20260508174700 | 69 | 202 | 3.0 | 8.0 | 0.00 | 0.00 | 0.00 | 40 | 1009.2 |
| 20260508174156 | 70 | 188 | 5.0 | 8.0 | 0.00 | 0.00 | 0.00 | 41 | 1009.4 |
| 20260508173653 | 69 | 320 | 3.0 | 7.0 | 0.00 | 0.00 | 0.00 | 38 | 1009.3 |
| 20260508173149 | 70 | 211 | 6.0 | 8.0 | 0.00 | 0.00 | 0.00 | 41 | 1009.6 |
| 20260508172646 | 71 | 258 | 2.0 | 8.0 | 0.00 | 0.00 | 0.00 | 40 | 1009.9 |
| 20260508172143 | 70 | 287 | 0.0 | 3.0 | 0.00 | 0.00 | 0.00 | 40 | 1009.5 |
| 20260508171639 | 69 | 267 | 3.0 | 9.0 | 0.00 | 0.00 | 0.00 | 39 | 1009.9 |
| 20260508171136 | 69 | 274 | 7.0 | 9.0 | 0.00 | 0.00 | 0.00 | 39 | 1010.0 |
| 20260508170633 | 69 | 198 | 5.0 | 9.0 | 0.00 | 0.00 | 0.00 | 46 | 1010.2 |
| 20260508170130 | 70 | 186 | 6.0 | 8.0 | 0.00 | 0.00 | 0.00 | 44 | 1010.1 |
| 20260508165627 | 69 | 279 | 2.0 | 6.0 | 0.00 | 0.00 | 0.00 | 41 | 1010.4 |
| 20260508165124 | 69 | 253 | 3.0 | 5.0 | 0.00 | 0.00 | 0.00 | 42 | 1010.4 |
| 20260508164620 | 69 | 249 | 1.0 | 5.0 | 0.00 | 0.00 | 0.00 | 41 | 1010.5 |
| 20260508164118 | 68 | 248 | 2.0 | 7.0 | 0.00 | 0.00 | 0.00 | 41 | 1010.8 |
| 20260508163615 | 68 | 233 | 3.0 | 6.0 | 0.00 | 0.00 | 0.00 | 42 | 1010.8 |
| 20260508163112 | 68 | 239 | 3.0 | 5.0 | 0.00 | 0.00 | 0.00 | 44 | 1010.6 |
| 20260508162608 | 68 | 258 | 5.0 | 6.0 | 0.00 | 0.00 | 0.00 | 41 | 1010.9 |
| 20260508162106 | 68 | 243 | 3.0 | 6.0 | 0.00 | 0.00 | 0.00 | 46 | 1010.9 |
| 20260508161602 | 68 | 261 | 7.0 | 9.0 | 0.00 | 0.00 | 0.00 | 42 | 1011.0 |
| 20260508161100 | 68 | 242 | 7.0 | 11.0 | 0.00 | 0.00 | 0.00 | 41 | 1010.9 |
| 20260508160558 | 67 | 255 | 2.0 | 5.0 | 0.00 | 0.00 | 0.00 | 47 | 1010.8 |
| 20260508160055 | 67 | 256 | 2.0 | 7.0 | 0.00 | 0.00 | 0.00 | 44 | 1011.2 |
| 20260508155552 | 67 | 254 | 3.0 | 7.0 | 0.00 | 0.00 | 0.00 | 43 | 1011.3 |
| 20260508155049 | 67 | 338 | 3.0 | 8.0 | 0.00 | 0.00 | 0.00 | 43 | 1011.2 |
| 20260508154546 | 67 | 296 | 3.0 | 7.0 | 0.00 | 0.00 | 0.00 | 44 | 1011.2 |
| 20260508154043 | 67 | 267 | 2.0 | 9.0 | 0.00 | 0.00 | 0.00 | 43 | 1011.4 |
| 20260508153539 | 66 | 245 | 3.0 | 5.0 | 0.00 | 0.00 | 0.00 | 44 | 1011.4 |
| 20260508153036 | 66 | 304 | 4.0 | 9.0 | 0.00 | 0.00 | 0.00 | 44 | 1011.5 |
| 20260508152533 | 65 | 250 | 3.0 | 13.0 | 0.00 | 0.00 | 0.00 | 44 | 1011.7 |
| 20260508152028 | 66 | 217 | 3.0 | 5.0 | 0.00 | 0.00 | 0.00 | 48 | 1011.6 |
| 20260508151525 | 65 | 228 | 3.0 | 7.0 | 0.00 | 0.00 | 0.00 | 48 | 1011.6 |
| 20260508151022 | 65 | 204 | 3.0 | 6.0 | 0.00 | 0.00 | 0.00 | 47 | 1011.7 |
| 20260508150520 | 65 | 262 | 6.0 | 8.0 | 0.00 | 0.00 | 0.00 | 45 | 1011.8 |
| 20260508150015 | 64 | 272 | 0.0 | 3.0 | 0.00 | 0.00 | 0.00 | 47 | 1011.6 |
| 20260508145512 | 64 | 237 | 2.0 | 3.0 | 0.00 | 0.00 | 0.00 | 47 | 1011.8 |
| 20260508145008 | 64 | 262 | 4.0 | 5.0 | 0.00 | 0.00 | 0.00 | 47 | 1011.8 |
| 20260508144506 | 63 | 192 | 4.0 | 6.0 | 0.00 | 0.00 | 0.00 | 49 | 1011.8 |
| 20260508144003 | 63 | 247 | 3.0 | 7.0 | 0.00 | 0.00 | 0.00 | 47 | 1011.8 |
| 20260508143501 | 63 | 201 | 4.0 | 6.0 | 0.00 | 0.00 | 0.00 | 48 | 1012.0 |
| 20260508142957 | 63 | 257 | 2.0 | 3.0 | 0.00 | 0.00 | 0.00 | 50 | 1011.9 |
| 20260508142454 | 63 | 298 | 3.0 | 5.0 | 0.00 | 0.00 | 0.00 | 45 | 1012.1 |
| 20260508141950 | 62 | 208 | 1.0 | 5.0 | 0.00 | 0.00 | 0.00 | 49 | 1012.3 |
| 20260508141447 | 62 | 262 | 1.0 | 5.0 | 0.00 | 0.00 | 0.00 | 47 | 1012.3 |
| 20260508140945 | 62 | 260 | 6.0 | 10.0 | 0.00 | 0.00 | 0.00 | 46 | 1012.4 |
| 20260508140442 | 62 | 246 | 3.0 | 6.0 | 0.00 | 0.00 | 0.00 | 48 | 1012.3 |
| 20260508135937 | 62 | 303 | 3.0 | 8.0 | 0.00 | 0.00 | 0.00 | 46 | 1012.3 |
| 20260508135434 | 61 | 262 | 2.0 | 6.0 | 0.00 | 0.00 | 0.00 | 50 | 1012.4 |
| 20260508134931 | 61 | 248 | 3.0 | 3.0 | 0.00 | 0.00 | 0.00 | 52 | 1012.7 |
| 20260508134427 | 60 | 262 | 1.0 | 3.0 | 0.00 | 0.00 | 0.00 | 58 | 1012.6 |
| 20260508133924 | 59 | 265 | 1.0 | 3.0 | 0.00 | 0.00 | 0.00 | 57 | 1012.6 |
| 20260508133422 | 58 | 190 | 3.0 | 5.0 | 0.00 | 0.00 | 0.00 | 61 | 1012.6 |
| 20260508132918 | 58 | 209 | 3.0 | 3.0 | 0.00 | 0.00 | 0.00 | 58 | 1012.6 |
| 20260508132416 | 58 | 241 | 1.0 | 2.0 | 0.00 | 0.00 | 0.00 | 62 | 1012.6 |
| 20260508131913 | 57 | 253 | 0.0 | 2.0 | 0.00 | 0.00 | 0.00 | 64 | 1012.6 |
| 20260508131408 | 57 | 232 | 2.0 | 2.0 | 0.00 | 0.00 | 0.00 | 64 | 1012.6 |
| 20260508130905 | 57 | 267 | 0.0 | 2.0 | 0.00 | 0.00 | 0.00 | 63 | 1012.6 |
| 20260508130402 | 55 | 270 | 0.0 | 1.0 | 0.00 | 0.00 | 0.00 | 68 | 1012.7 |
| 20260508125858 | 55 | 262 | 1.0 | 2.0 | 0.00 | 0.00 | 0.00 | 67 | 1012.4 |
| 20260508125354 | 55 | 277 | 0.0 | 1.0 | 0.00 | 0.00 | 0.00 | 66 | 1012.7 |
| 20260508124852 | 54 | 272 | 0.0 | 1.0 | 0.00 | 0.00 | 0.00 | 70 | 1012.4 |
| 20260508124349 | 51 | 252 | 0.0 | 2.0 | 0.00 | 0.00 | 0.00 | 75 | 1012.4 |
| 20260508123847 | 51 | 217 | 2.0 | 2.0 | 0.00 | 0.00 | 0.00 | 73 | 1012.5 |
| 20260508123346 | 51 | 233 | 2.0 | 2.0 | 0.00 | 0.00 | 0.00 | 73 | 1012.6 |
| 20260508122842 | 50 | 233 | 1.0 | 3.0 | 0.00 | 0.00 | 0.00 | 74 | 1012.5 |
| 20260508122338 | 49 | 221 | 2.0 | 2.0 | 0.00 | 0.00 | 0.00 | 77 | 1012.7 |
| 20260508121836 | 48 | 249 | 1.0 | 2.0 | 0.00 | 0.00 | 0.00 | 78 | 1012.7 |
| 20260508121334 | 47 | 207 | 3.0 | 3.0 | 0.00 | 0.00 | 0.00 | 79 | 1012.4 |
| 20260508120831 | 46 | 241 | 2.0 | 2.0 | 0.00 | 0.00 | 0.00 | 80 | 1012.7 |
| 20260508120329 | 46 | 259 | 1.0 | 2.0 | 0.00 | 0.00 | 0.00 | 80 | 1012.7 |
| 20260508115826 | 47 | 232 | 2.0 | 2.0 | 0.00 | 0.00 | 0.00 | 79 | 1012.6 |
| 20260508115324 | 47 | 270 | 1.0 | 1.0 | 0.00 | 0.00 | 0.00 | 79 | 1012.6 |
| 20260508114820 | 47 | 266 | 0.0 | 2.0 | 0.00 | 0.00 | 0.00 | 80 | 1012.6 |
| 20260508114317 | 46 | 277 | 0.0 | 1.0 | 0.00 | 0.00 | 0.00 | 81 | 1012.4 |
| 20260508113814 | 46 | 265 | 1.0 | 1.0 | 0.00 | 0.00 | 0.00 | 81 | 1012.3 |
| 20260508113312 | 45 | 247 | 1.0 | 2.0 | 0.00 | 0.00 | 0.00 | 82 | 1012.0 |
| 20260508112808 | 45 | 263 | 0.0 | 0.0 | 0.00 | 0.00 | 0.00 | 83 | 1012.2 |
| 20260508112307 | 45 | 269 | 0.0 | 0.0 | 0.00 | 0.00 | 0.00 | 83 | 1012.1 |
| 20260508111801 | 45 | 269 | 0.0 | 0.0 | 0.00 | 0.00 | 0.00 | 83 | 1012.2 |
| 20260508111259 | 45 | 270 | 0.0 | 0.0 | 0.00 | 0.00 | 0.00 | 83 | 1012.1 |
| 20260508110756 | 44 | 270 | 0.0 | 0.0 | 0.00 | 0.00 | 0.00 | 84 | 1012.2 |
| 20260508110254 | 44 | 267 | 0.0 | 0.0 | 0.00 | 0.00 | 0.00 | 85 | 1011.9 |
| 20260508105753 | 44 | 268 | 0.0 | 0.0 | 0.00 | 0.00 | 0.00 | 86 | 1012.0 |
| 20260508105250 | 44 | 268 | 0.0 | 1.0 | 0.00 | 0.00 | 0.00 | 86 | 1012.2 |
| 20260508104748 | 44 | 265 | 1.0 | 1.0 | 0.00 | 0.00 | 0.00 | 86 | 1012.0 |
| 20260508104244 | 44 | 256 | 1.0 | 2.0 | 0.00 | 0.00 | 0.00 | 86 | 1012.1 |
| 20260508103742 | 44 | 255 | 2.0 | 2.0 | 0.00 | 0.00 | 0.00 | 87 | 1011.9 |
| 20260508103238 | 44 | 260 | 1.0 | 2.0 | 0.00 | 0.00 | 0.00 | 87 | 1011.8 |
| 20260508102735 | 44 | 246 | 2.0 | 2.0 | 0.00 | 0.00 | 0.00 | 87 | 1012.1 |
| 20260508102234 | 44 | 233 | 2.0 | 2.0 | 0.00 | 0.00 | 0.00 | 88 | 1012.0 |
| 20260508101730 | 44 | 244 | 0.0 | 0.0 | 0.00 | 0.00 | 0.00 | 89 | 1011.7 |
| 20260508101228 | 43 | 272 | 0.0 | 0.0 | 0.00 | 0.00 | 0.00 | 90 | 1011.9 |
| 20260508100726 | 43 | 272 | 0.0 | 0.0 | 0.00 | 0.00 | 0.00 | 91 | 1012.0 |
| 20260508100224 | 43 | 272 | 0.0 | 0.0 | 0.00 | 0.00 | 0.00 | 91 | 1011.8 |
| 20260508095719 | 43 | 272 | 0.0 | 0.0 | 0.00 | 0.00 | 0.00 | 91 | 1012.0 |
| 20260508095218 | 42 | 272 | 0.0 | 0.0 | 0.00 | 0.00 | 0.00 | 92 | 1011.8 |
| 20260508094714 | 42 | 272 | 0.0 | 0.0 | 0.00 | 0.00 | 0.00 | 92 | 1011.9 |
| 20260508094211 | 42 | 272 | 0.0 | 0.0 | 0.00 | 0.00 | 0.00 | 92 | 1011.6 |
| 20260508093707 | 42 | 272 | 0.0 | 0.0 | 0.00 | 0.00 | 0.00 | 92 | 1012.0 |
| 20260508093206 | 42 | 272 | 0.0 | 0.0 | 0.00 | 0.00 | 0.00 | 92 | 1011.8 |
| 20260508092702 | 41 | 272 | 0.0 | 0.0 | 0.00 | 0.00 | 0.00 | 92 | 1011.7 |
| 20260508092201 | 42 | 272 | 0.0 | 0.0 | 0.00 | 0.00 | 0.00 | 93 | 1011.9 |
| 20260508091658 | 42 | 272 | 0.0 | 0.0 | 0.00 | 0.00 | 0.00 | 92 | 1012.0 |
| 20260508091155 | 42 | 272 | 0.0 | 0.0 | 0.00 | 0.00 | 0.00 | 92 | 1011.9 |
| 20260508090653 | 42 | 272 | 0.0 | 0.0 | 0.00 | 0.00 | 0.00 | 92 | 1011.8 |
| 20260508090150 | 41 | 272 | 0.0 | 0.0 | 0.00 | 0.00 | 0.00 | 92 | 1011.9 |
| 20260508085645 | 41 | 272 | 0.0 | 0.0 | 0.00 | 0.00 | 0.00 | 92 | 1011.9 |
| 20260508085143 | 41 | 272 | 0.0 | 0.0 | 0.00 | 0.00 | 0.00 | 92 | 1011.6 |
| 20260508084639 | 42 | 272 | 0.0 | 0.0 | 0.00 | 0.00 | 0.00 | 92 | 1011.9 |
| 20260508084137 | 41 | 272 | 0.0 | 0.0 | 0.00 | 0.00 | 0.00 | 92 | 1011.6 |
| 20260508083634 | 41 | 272 | 0.0 | 0.0 | 0.00 | 0.00 | 0.00 | 92 | 1011.7 |
| 20260508083132 | 41 | 272 | 0.0 | 0.0 | 0.00 | 0.00 | 0.00 | 92 | 1011.7 |
| 20260508082626 | 42 | 272 | 0.0 | 0.0 | 0.00 | 0.00 | 0.00 | 91 | 1011.7 |
| 20260508082124 | 42 | 272 | 0.0 | 0.0 | 0.00 | 0.00 | 0.00 | 91 | 1011.7 |
| 20260508081621 | 42 | 272 | 0.0 | 0.0 | 0.00 | 0.00 | 0.00 | 91 | 1011.7 |
| 20260508081118 | 42 | 272 | 0.0 | 0.0 | 0.00 | 0.00 | 0.00 | 91 | 1011.6 |
| 20260508080615 | 42 | 272 | 0.0 | 0.0 | 0.00 | 0.00 | 0.00 | 91 | 1011.7 |
| 20260508080114 | 42 | 272 | 0.0 | 0.0 | 0.00 | 0.00 | 0.00 | 91 | 1011.7 |
| 20260508075609 | 42 | 272 | 0.0 | 0.0 | 0.00 | 0.00 | 0.00 | 91 | 1011.6 |
| 20260508075106 | 42 | 272 | 0.0 | 0.0 | 0.00 | 0.00 | 0.00 | 90 | 1011.8 |
| 20260508074604 | 42 | 272 | 0.0 | 0.0 | 0.00 | 0.00 | 0.00 | 90 | 1011.6 |
| 20260508074101 | 42 | 272 | 0.0 | 0.0 | 0.00 | 0.00 | 0.00 | 90 | 1011.6 |
| 20260508073558 | 42 | 272 | 0.0 | 0.0 | 0.00 | 0.00 | 0.00 | 90 | 1011.7 |
| 20260508073056 | 43 | 272 | 0.0 | 0.0 | 0.00 | 0.00 | 0.00 | 89 | 1011.7 |
| 20260508072551 | 43 | 272 | 0.0 | 0.0 | 0.00 | 0.00 | 0.00 | 89 | 1011.8 |
| 20260508072048 | 43 | 272 | 0.0 | 0.0 | 0.00 | 0.00 | 0.00 | 89 | 1011.5 |
| 20260508071547 | 43 | 272 | 0.0 | 0.0 | 0.00 | 0.00 | 0.00 | 88 | 1011.7 |
| 20260508071044 | 43 | 272 | 0.0 | 0.0 | 0.00 | 0.00 | 0.00 | 88 | 1011.7 |
| 20260508070541 | 44 | 272 | 0.0 | 0.0 | 0.00 | 0.00 | 0.00 | 88 | 1011.6 |
| 20260508070040 | 44 | 272 | 0.0 | 0.0 | 0.00 | 0.00 | 0.00 | 87 | 1011.8 |
| 20260508065537 | 44 | 272 | 0.0 | 0.0 | 0.00 | 0.00 | 0.00 | 87 | 1011.6 |
| 20260508065035 | 44 | 272 | 0.0 | 0.0 | 0.00 | 0.00 | 0.00 | 87 | 1011.7 |
| 20260508064532 | 44 | 272 | 0.0 | 0.0 | 0.00 | 0.00 | 0.00 | 86 | 1011.9 |
| 20260508064030 | 44 | 272 | 0.0 | 0.0 | 0.00 | 0.00 | 0.00 | 86 | 1012.1 |
| 20260508063527 | 44 | 272 | 0.0 | 0.0 | 0.00 | 0.00 | 0.00 | 86 | 1012.0 |
| 20260508063025 | 44 | 272 | 0.0 | 0.0 | 0.00 | 0.00 | 0.00 | 86 | 1012.0 |
| 20260508062522 | 44 | 272 | 0.0 | 0.0 | 0.00 | 0.00 | 0.00 | 85 | 1012.2 |
| 20260508062019 | 44 | 272 | 0.0 | 0.0 | 0.00 | 0.00 | 0.00 | 85 | 1012.2 |
| 20260508061517 | 44 | 272 | 0.0 | 0.0 | 0.00 | 0.00 | 0.00 | 84 | 1012.1 |
| 20260508061013 | 44 | 272 | 0.0 | 0.0 | 0.00 | 0.00 | 0.00 | 84 | 1012.3 |
| 20260508060510 | 44 | 272 | 0.0 | 0.0 | 0.00 | 0.00 | 0.00 | 84 | 1012.3 |
| 20260508060008 | 45 | 272 | 0.0 | 0.0 | 0.00 | 0.00 | 0.00 | 83 | 1012.2 |
| 20260508055504 | 45 | 272 | 0.0 | 0.0 | 0.00 | 0.00 | 0.00 | 83 | 1012.4 |
| 20260508055000 | 45 | 272 | 0.0 | 0.0 | 0.00 | 0.00 | 0.00 | 82 | 1012.2 |
| 20260508054457 | 45 | 272 | 0.0 | 0.0 | 0.00 | 0.00 | 0.00 | 81 | 1012.4 |
| 20260508053954 | 45 | 272 | 0.0 | 0.0 | 0.00 | 0.00 | 0.00 | 81 | 1012.3 |
| 20260508053450 | 45 | 272 | 0.0 | 0.0 | 0.00 | 0.00 | 0.00 | 81 | 1012.3 |
| 20260508052949 | 46 | 272 | 0.0 | 0.0 | 0.00 | 0.00 | 0.00 | 81 | 1012.3 |
| 20260508052446 | 46 | 272 | 0.0 | 1.0 | 0.00 | 0.00 | 0.00 | 81 | 1012.2 |
| 20260508051942 | 45 | 272 | 0.0 | 0.0 | 0.00 | 0.00 | 0.00 | 81 | 1012.1 |
| 20260508051438 | 45 | 272 | 0.0 | 0.0 | 0.00 | 0.00 | 0.00 | 82 | 1012.1 |
| 20260508050934 | 45 | 272 | 0.0 | 0.0 | 0.00 | 0.00 | 0.00 | 83 | 1012.0 |
| 20260508050431 | 45 | 272 | 0.0 | 0.0 | 0.00 | 0.00 | 0.00 | 83 | 1011.8 |
| 20260508045927 | 45 | 272 | 0.0 | 0.0 | 0.00 | 0.00 | 0.00 | 83 | 1012.1 |
| 20260508045425 | 45 | 272 | 0.0 | 0.0 | 0.00 | 0.00 | 0.00 | 82 | 1011.8 |
| 20260508044922 | 45 | 272 | 0.0 | 0.0 | 0.00 | 0.00 | 0.00 | 82 | 1012.0 |
| 20260508044419 | 46 | 272 | 0.0 | 0.0 | 0.00 | 0.00 | 0.00 | 81 | 1012.3 |
| 20260508043914 | 46 | 272 | 0.0 | 0.0 | 0.00 | 0.00 | 0.00 | 81 | 1012.0 |
| 20260508043412 | 46 | 272 | 0.0 | 0.0 | 0.00 | 0.00 | 0.00 | 81 | 1012.1 |
| 20260508042908 | 46 | 272 | 0.0 | 0.0 | 0.00 | 0.00 | 0.00 | 80 | 1012.1 |
| 20260508042406 | 46 | 272 | 0.0 | 0.0 | 0.00 | 0.00 | 0.00 | 80 | 1012.1 |
| 20260508041903 | 46 | 272 | 0.0 | 0.0 | 0.00 | 0.00 | 0.00 | 81 | 1012.1 |
| 20260508041359 | 46 | 272 | 0.0 | 0.0 | 0.00 | 0.00 | 0.00 | 80 | 1011.9 |
| 20260508040856 | 46 | 272 | 0.0 | 1.0 | 0.00 | 0.00 | 0.00 | 80 | 1011.8 |
| 20260508040353 | 46 | 272 | 0.0 | 0.0 | 0.00 | 0.00 | 0.00 | 79 | 1011.8 |
| 20260508035851 | 46 | 272 | 0.0 | 0.0 | 0.00 | 0.00 | 0.00 | 79 | 1011.9 |
| 20260508035348 | 46 | 272 | 0.0 | 0.0 | 0.00 | 0.00 | 0.00 | 79 | 1011.6 |
| 20260508034844 | 46 | 272 | 0.0 | 0.0 | 0.00 | 0.00 | 0.00 | 78 | 1011.7 |
| 20260508034342 | 47 | 272 | 0.0 | 0.0 | 0.00 | 0.00 | 0.00 | 78 | 1012.1 |
| 20260508033838 | 47 | 272 | 0.0 | 0.0 | 0.00 | 0.00 | 0.00 | 78 | 1012.0 |
| 20260508033337 | 47 | 272 | 0.0 | 0.0 | 0.00 | 0.00 | 0.00 | 77 | 1011.9 |
| 20260508032834 | 48 | 272 | 0.0 | 0.0 | 0.00 | 0.00 | 0.00 | 76 | 1011.8 |
| 20260508032331 | 48 | 272 | 0.0 | 0.0 | 0.00 | 0.00 | 0.00 | 75 | 1012.1 |
| 20260508031827 | 48 | 272 | 0.0 | 0.0 | 0.00 | 0.00 | 0.00 | 74 | 1012.0 |
| 20260508031324 | 48 | 272 | 0.0 | 0.0 | 0.00 | 0.00 | 0.00 | 74 | 1012.1 |
| 20260508030821 | 49 | 272 | 0.0 | 0.0 | 0.00 | 0.00 | 0.00 | 73 | 1011.7 |
| 20260508030318 | 49 | 272 | 0.0 | 0.0 | 0.00 | 0.00 | 0.00 | 72 | 1011.9 |
| 20260508025815 | 49 | 272 | 0.0 | 0.0 | 0.00 | 0.00 | 0.00 | 72 | 1012.0 |
| 20260508025312 | 50 | 272 | 0.0 | 0.0 | 0.00 | 0.00 | 0.00 | 71 | 1012.1 |
| 20260508024809 | 50 | 272 | 0.0 | 0.0 | 0.00 | 0.00 | 0.00 | 70 | 1011.9 |
| 20260508024305 | 50 | 271 | 0.0 | 1.0 | 0.00 | 0.00 | 0.00 | 69 | 1011.6 |
| 20260508023802 | 50 | 272 | 0.0 | 1.0 | 0.00 | 0.00 | 0.00 | 69 | 1011.7 |
| 20260508023259 | 50 | 271 | 0.0 | 0.0 | 0.00 | 0.00 | 0.00 | 68 | 1011.6 |
| 20260508022755 | 50 | 271 | 0.0 | 0.0 | 0.00 | 0.00 | 0.00 | 66 | 1011.8 |
| 20260508022251 | 50 | 271 | 0.0 | 0.0 | 0.00 | 0.00 | 0.00 | 63 | 1011.6 |
| 20260508021749 | 50 | 271 | 0.0 | 0.0 | 0.00 | 0.00 | 0.00 | 61 | 1011.8 |
| 20260508021244 | 51 | 271 | 0.0 | 0.0 | 0.00 | 0.00 | 0.00 | 60 | 1011.9 |
| 20260508020741 | 51 | 271 | 0.0 | 0.0 | 0.00 | 0.00 | 0.00 | 59 | 1011.6 |
| 20260508020239 | 51 | 271 | 0.0 | 0.0 | 0.00 | 0.00 | 0.00 | 57 | 1011.7 |
| 20260508015735 | 51 | 271 | 0.0 | 0.0 | 0.00 | 0.00 | 0.00 | 56 | 1011.9 |
| 20260508015233 | 52 | 271 | 0.0 | 0.0 | 0.00 | 0.00 | 0.00 | 55 | 1011.6 |
| 20260508014729 | 52 | 271 | 0.0 | 0.0 | 0.00 | 0.00 | 0.00 | 54 | 1011.4 |
| 20260508014226 | 52 | 271 | 0.0 | 0.0 | 0.00 | 0.00 | 0.00 | 52 | 1011.6 |
| 20260508013722 | 53 | 271 | 0.0 | 0.0 | 0.00 | 0.00 | 0.00 | 51 | 1011.5 |
| 20260508013218 | 53 | 271 | 0.0 | 0.0 | 0.00 | 0.00 | 0.00 | 52 | 1011.6 |
| 20260508012716 | 53 | 271 | 0.0 | 0.0 | 0.00 | 0.00 | 0.00 | 52 | 1011.5 |
| 20260508012213 | 54 | 271 | 0.0 | 0.0 | 0.00 | 0.00 | 0.00 | 49 | 1011.4 |
| 20260508011711 | 55 | 271 | 0.0 | 0.0 | 0.00 | 0.00 | 0.00 | 48 | 1011.5 |
| 20260508011208 | 55 | 271 | 0.0 | 0.0 | 0.00 | 0.00 | 0.00 | 48 | 1011.5 |
| 20260508010704 | 56 | 271 | 0.0 | 1.0 | 0.00 | 0.00 | 0.00 | 46 | 1011.5 |
| 20260508010202 | 56 | 271 | 0.0 | 0.0 | 0.00 | 0.00 | 0.00 | 44 | 1011.2 |
| 20260508005654 | 57 | 271 | 1.0 | 1.0 | 0.00 | 0.00 | 0.00 | 43 | 1011.4 |
| 20260508005150 | 57 | 271 | 0.0 | 1.0 | 0.00 | 0.00 | 0.00 | 42 | 1011.3 |
| 20260508004646 | 58 | 271 | 0.0 | 1.0 | 0.00 | 0.00 | 0.00 | 40 | 1011.4 |
| 20260508004143 | 58 | 271 | 1.0 | 1.0 | 0.00 | 0.00 | 0.00 | 40 | 1011.3 |
| 20260508003639 | 58 | 272 | 0.0 | 1.0 | 0.00 | 0.00 | 0.00 | 39 | 1011.4 |
| 20260508003137 | 58 | 275 | 0.0 | 2.0 | 0.00 | 0.00 | 0.00 | 39 | 1011.3 |